Helicity
35 36 34 33 30 27 25 20 17 15 16 9 4 4 1 2 4 16 22 21 22 19 14 9 -2 20 39 69 59 13 57 33 -19 1 60 57 109 72 105 109 112 131 134 127 126 158 179
39 39 38 36 33 32 27 23 19 17 16 12 12 11 12 9 8 10 13 12 16 16 33 27 18 19 32 71 18 7 -7 -22 23 34 72 86 62 69 110 121 160 149 160 149 144 129 103
37 36 38 40 34 29 25 17 10 7 12 12 16 18 13 14 18 8 3 5 8 0 16 15 19 43 90 32 -3 -23 13 -10 24 45 50 63 65 111 101 118 100 147 185 190 141 134 146
31 29 29 32 28 25 23 21 15 12 12 12 15 13 7 4 6 1 -2 0 3 -1 -16 0 11 43 51 4 7 -2 39 25 53 47 46 45 67 128 125 113 118 120 152 149 146 160 146
26 26 24 22 24 23 23 19 14 14 17 18 9 13 6 -9 -8 -6 -6 -6 -4 -11 8 6 39 58 33 8 -9 49 41 29 26 37 53 60 98 116 124 135 142 145 130 160 180 228 228
18 21 23 20 23 25 22 15 12 12 12 13 5 3 -1 -34 -19 -18 -13 28 24 52 25 49 30 32 -6 5 12 56 6 50 34 35 72 107 115 123 155 156 133 152 185 181 196 267 267
15 14 19 21 25 29 31 23 14 13 11 11 2 -3 -7 -9 -5 8 23 33 46 47 131 74 35 38 6 7 26 48 52 51 61 83 81 102 190 146 130 130 128 137 142 142 148 248 206
16 17 18 22 25 25 23 20 22 26 27 20 -2 -9 -14 5 8 10 68 76 70 69 99 62 7 -12 14 10 46 116 84 86 83 92 50 108 151 100 81 132 146 129 117 132 154 234 245
14 16 18 20 22 27 26 26 30 32 35 36 6 -3 -14 -8 25 52 69 72 70 54 84 51 -13 32 -2 43 74 62 46 33 78 72 93 126 96 53 89 141 136 127 155 167 172 187 200
17 19 20 17 22 24 25 25 25 26 29 34 17 6 4 -14 49 40 48 41 58 63 82 58 14 41 31 47 86 38 29 30 74 74 95 142 89 100 160 135 120 107 147 155 167 233 234
14 13 13 17 25 24 27 26 22 20 23 27 17 13 25 33 39 54 46 42 53 62 68 68 45 27 57 72 60 71 54 79 85 112 96 108 136 166 151 112 134 113 119 140 210 215 280
13 13 20 18 19 22 31 36 35 33 28 30 6 12 25 47 58 37 25 38 64 88 76 78 69 66 57 57 85 64 84 72 67 135 193 125 128 140 127 121 107 123 117 129 176 249 326
12 16 19 21 23 29 34 34 34 26 22 29 5 4 38 35 45 29 30 62 74 95 90 98 95 84 74 99 108 107 91 106 98 116 124 113 126 144 182 153 161 159 103 104 243 298 301
27 24 23 26 30 26 29 35 37 37 36 28 -3 5 48 49 38 44 60 77 97 120 116 102 103 87 124 117 121 106 121 116 149 121 112 126 143 148 189 168 126 114 130 184 258 330 441
42 40 42 38 32 32 32 33 38 35 30 30 0 28 51 44 50 62 90 101 89 109 122 124 115 140 143 133 126 146 169 154 130 130 129 140 166 278 212 162 153 177 243 227 271 254 432
63 54 58 44 40 37 46 41 41 35 31 27 19 48 53 50 58 81 118 100 117 131 139 130 117 151 165 155 156 177 151 153 139 155 145 173 182 205 197 220 221 252 227 284 349 341 420
66 67 61 49 42 44 40 54 47 41 42 25 20 51 58 56 64 118 102 113 122 141 140 129 144 188 210 195 209 187 216 195 165 147 142 169 193 228 266 197 247 254 259 260 308 385 530
88 80 76 68 56 48 42 42 47 55 65 33 29 63 68 79 115 122 136 123 122 128 119 149 178 228 221 212 225 202 192 185 197 175 151 152 219 190 235 280 287 306 318 379 479 408 664
88 80 95 97 73 62 51 47 44 57 58 20 67 78 95 92 106 138 124 119 134 149 136 143 165 190 199 221 230 239 220 180 212 191 182 186 232 238 242 218 247 394 305 312 346 421 459
91 116 92 97 102 68 55 47 48 64 68 55 81 131 105 150 134 131 135 113 137 142 175 191 197 221 237 223 210 235 226 167 170 192 217 239 267 277 306 303 329 382 333 319 406 503 508
96 66 77 69 87 90 59 59 62 88 91 90 104 133 140 153 145 141 122 150 180 134 163 178 193 178 221 220 228 211 223 231 192 166 226 235 254 256 197 161 244 324 174 223 265 256 453
59 181 86 114 164 112 214 170 168 168 194 153 163 155 188 182 159 176 160 104 133 203 219 171 193 166 201 248 235 250 243 231 227 202 262 259 216 245 249 171 202 266 138 150 183 220 305
104 96 141 174 135 99 198 209 188 266 217 183 201 189 177 178 172 169 136 130 115 210 185 204 164 253 219 219 249 234 270 277 296 272 263 265 222 244 245 203 303 292 172 254 275 287 306
115 137 119 51 79 102 112 172 256 170 217 285 215 202 195 152 184 160 162 207 206 230 233 204 241 247 211 240 235 231 228 232 254 246 285 282 287 277 298 287 290 293 308 275 286 198 169
90 76 97 158 144 91 74 147 211 187 189 255 257 338 270 201 175 194 246 275 372 355 267 274 315 267 226 255 281 271 275 227 181 163 179 214 283 263 275 367 344 400 223 248 313 224 197
65 67 101 127 105 93 -62 79 185 212 162 260 294 316 353 247 166 239 287 319 357 340 282 309 311 284 267 274 270 284 263 225 223 205 203 210 262 356 374 389 356 331 266 245 241 262 172
78 71 77 75 116 99 38 36 161 184 160 306 274 265 274 339 256 317 276 308 317 278 263 264 274 287 252 282 276 264 261 257 224 219 227 259 260 262 226 350 292 329 257 209 358 267 155
82 72 66 67 75 109 100 136 160 138 219 247 257 338 365 346 268 323 394 323 262 290 257 232 304 262 288 258 246 219 249 177 231 248 233 258 244 297 308 407 288 264 288 307 192 157 154
91 79 75 64 62 72 43 157 115 149 168 239 293 329 413 362 327 352 291 239 257 283 264 248 247 223 216 245 226 242 249 239 225 228 239 242 236 343 323 390 330 240 191 153 144 138 127
Wind_Speed
51 53 53 52 52 52 53 55 56 56 55 54 55 54 53 53 54 53 52 50 49 47 42 35 32 41 39 44 45 56 55 54 49 50 52 47 47 40 40 37 37 35 34 39 37 41 40
50 52 53 53 53 53 54 55 57 58 58 57 57 58 58 56 52 49 49 51 50 46 43 42 40 34 38 40 41 57 51 51 54 51 54 50 40 37 36 38 39 34 32 33 38 39 37
51 52 53 53 53 54 56 57 58 58 59 58 60 60 59 55 51 50 48 49 48 43 43 44 42 43 47 40 44 56 51 48 51 52 46 47 45 39 36 37 34 29 39 37 37 36 38
50 52 53 54 53 55 58 59 59 59 60 60 60 59 57 53 51 50 49 46 45 43 41 41 41 41 38 35 40 60 57 45 51 45 43 44 42 42 40 36 34 35 37 46 40 40 41
50 51 53 54 54 56 58 60 60 60 61 60 59 59 57 52 51 52 49 46 44 40 41 41 41 37 37 37 49 61 52 47 47 44 45 41 42 44 46 41 42 43 49 50 50 48 50
50 51 52 54 56 57 59 61 61 61 60 60 58 58 58 50 47 48 43 40 52 44 45 38 40 35 42 42 48 63 51 53 40 46 43 49 46 46 53 50 51 53 53 52 60 55 59
49 50 51 54 56 59 61 62 62 62 61 61 59 57 58 50 45 48 42 37 42 41 54 44 38 36 40 49 43 64 55 52 48 49 49 52 53 51 54 56 52 50 52 56 56 56 66
49 50 51 53 55 57 60 62 62 62 62 62 59 58 57 49 45 50 40 42 39 34 42 43 39 39 42 46 45 67 63 49 56 56 45 52 48 48 50 56 56 54 57 61 57 56 72
48 50 51 52 54 57 59 60 61 61 62 62 60 59 57 49 41 48 44 38 36 38 40 38 37 39 44 49 49 64 60 49 53 57 57 49 45 47 51 57 62 59 62 62 67 76 68
49 50 51 52 53 55 58 59 61 62 64 64 62 60 59 50 40 41 43 36 37 37 39 34 34 39 49 42 44 52 57 46 48 51 51 50 52 53 52 57 60 67 57 66 73 82 81
48 49 50 51 53 54 57 59 60 62 64 66 63 59 58 51 41 43 39 33 35 36 49 35 34 36 48 48 44 55 58 52 50 53 46 51 55 55 55 56 56 58 66 71 70 69 77
49 50 50 52 52 54 57 60 62 64 66 68 63 56 55 44 43 41 37 33 34 41 43 36 35 42 42 50 45 49 52 50 46 48 54 51 45 48 51 52 51 59 71 75 59 61 85
49 51 53 52 54 56 58 60 62 64 67 68 60 50 48 41 41 38 36 35 43 41 36 38 41 44 45 49 46 49 51 58 56 60 64 57 53 48 51 62 53 71 77 84 83 85 89
50 51 52 53 57 59 59 60 64 66 68 69 59 46 43 44 39 35 34 40 45 38 40 36 40 44 47 45 45 50 48 58 53 52 62 63 68 53 52 56 62 63 66 76 92 95 98
52 54 54 56 56 56 62 64 65 67 70 69 55 44 38 46 37 33 36 45 41 38 36 41 45 47 45 44 50 51 54 50 47 53 59 64 61 51 49 49 52 61 67 56 74 73 88
55 54 52 55 57 60 58 62 67 69 69 71 54 47 37 41 35 34 40 42 37 34 38 41 45 44 51 49 51 50 49 44 46 47 52 56 68 53 49 51 47 56 51 70 69 93 101
60 57 54 55 55 57 62 62 65 70 70 59 54 52 36 38 36 39 44 40 38 35 34 38 41 48 49 50 45 48 47 45 41 45 49 52 56 64 56 56 57 58 64 60 62 68 89
65 60 59 58 59 60 61 62 64 68 73 50 52 55 42 34 46 44 41 39 37 37 36 40 41 44 44 43 48 47 43 44 37 42 55 45 55 66 66 53 47 50 57 58 76 83 71
73 70 59 58 60 61 62 62 63 64 61 56 59 51 40 40 51 45 38 45 40 38 39 42 43 43 44 45 52 41 42 36 35 41 48 46 57 75 68 57 53 58 54 54 58 65 79
56 62 64 57 57 61 63 65 63 60 56 52 53 57 46 43 45 41 46 48 45 37 41 39 42 42 46 48 41 46 43 39 35 40 41 43 52 57 71 70 62 68 62 55 63 79 82
70 61 58 57 61 55 62 63 63 59 55 50 47 54 47 55 51 49 47 44 48 49 41 34 45 40 43 50 47 47 41 41 39 38 40 47 65 58 57 61 62 65 66 64 63 65 75
71 76 74 64 69 71 64 63 57 62 55 53 56 53 49 53 49 50 48 51 49 47 43 48 46 38 37 46 45 47 41 44 49 37 41 44 65 62 71 64 63 70 67 61 59 59 63
73 70 71 78 77 70 63 60 53 48 46 55 54 53 58 54 49 52 55 53 48 42 45 47 40 41 40 38 39 41 41 41 41 43 41 49 54 69 80 66 79 85 62 58 59 56 62
83 80 76 72 73 71 64 58 45 42 41 51 51 49 56 66 54 55 53 49 48 44 50 43 41 41 39 33 38 43 44 42 41 37 35 47 52 58 76 75 89 64 54 55 60 57 56
84 83 82 80 77 72 61 48 43 38 31 44 51 54 55 70 60 58 49 49 45 47 47 43 42 36 28 39 48 51 53 51 46 37 35 35 45 61 70 75 76 68 56 59 65 69 59
86 85 85 85 83 76 61 52 41 38 32 47 49 47 53 60 63 53 47 44 52 49 46 43 35 31 33 41 46 56 60 54 50 50 39 39 39 49 66 79 87 63 51 51 59 80 54
91 88 86 85 83 82 67 50 44 41 34 43 45 39 50 62 57 51 56 53 41 43 46 40 35 35 32 42 49 50 52 44 53 52 51 49 51 53 59 70 66 51 47 50 79 81 60
91 89 87 85 82 79 67 48 42 39 39 43 44 39 42 50 53 54 52 49 39 35 42 33 36 37 34 39 43 46 46 44 49 47 51 50 55 60 58 70 79 39 49 65 62 56 59
87 88 87 83 81 79 65 46 39 34 36 40 55 39 30 45 49 42 42 41 42 41 34 23 39 33 26 36 38 42 48 46 48 62 42 54 45 56 51 59 49 39 51 47 48 56 55
Wind_Direction
12 12 6 359 354 350 346 345 344 341 339 337 338 337 336 341 354 8 21 23 21 22 29 40 40 17 23 13 13 334 322 340 5 11 8 14 15 21 17 14 9 7 0 357 359 355 355
6 7 5 358 351 348 346 342 342 341 340 339 338 341 345 350 2 14 21 19 16 23 30 29 28 34 20 20 19 340 345 5 3 10 5 11 17 17 14 10 5 11 9 3 355 353 349
3 8 6 357 350 347 346 345 342 341 341 340 341 345 348 352 10 14 19 18 23 36 30 20 24 25 19 28 23 350 355 12 6 7 13 12 12 14 14 10 13 16 358 359 354 354 352
355 1 9 358 348 347 348 347 344 343 342 342 345 344 347 352 5 13 17 23 23 19 19 23 21 22 31 38 24 350 348 8 359 14 16 14 15 17 13 11 8 360 356 344 350 349 344
353 353 359 359 349 347 348 347 343 342 342 344 344 346 349 360 5 5 10 19 21 26 24 21 20 27 35 27 6 352 3 11 7 13 15 19 19 15 5 3 356 353 342 342 340 345 339
359 355 354 355 349 346 346 347 347 345 342 342 344 348 351 1 11 8 22 30 9 16 7 25 19 31 17 17 6 348 357 2 15 8 13 8 10 6 3 358 347 343 341 340 336 339 333
354 359 359 356 352 348 347 347 350 351 347 345 346 348 352 4 15 12 16 17 11 15 10 19 23 33 22 1 13 348 359 4 11 14 7 6 2 3 360 356 350 345 340 335 335 338 331
343 350 353 353 354 354 354 354 351 348 346 344 346 349 353 5 11 6 23 13 17 29 15 12 23 24 15 8 11 344 354 9 8 4 10 3 4 2 358 354 351 346 339 334 335 337 333
345 342 343 346 347 349 351 350 346 342 341 337 338 342 350 4 16 9 14 22 26 20 14 17 19 15 11 5 6 353 2 9 8 4 4 3 4 359 355 353 348 346 340 339 334 333 332
336 334 337 341 344 347 347 347 346 345 341 337 336 342 341 357 12 15 13 23 16 16 8 15 15 10 3 12 7 8 3 9 6 3 5 4 0 356 355 351 350 342 348 339 334 333 331
343 340 336 331 333 341 343 343 343 343 343 342 343 346 343 359 8 6 11 16 17 16 351 12 16 13 6 8 3 359 5 4 2 1 0 355 355 355 351 350 353 345 343 336 331 331 332
334 336 340 338 336 335 337 336 336 337 339 341 347 354 350 3 6 8 14 17 17 360 349 5 11 4 4 3 4 360 2 5 4 359 0 357 4 359 354 353 349 347 343 341 344 339 332
334 332 329 334 334 334 335 336 338 338 336 339 351 360 2 8 3 11 16 15 357 352 5 359 357 358 358 357 359 0 360 357 352 347 346 349 351 355 357 349 352 349 347 341 339 337 333
326 329 332 333 328 326 333 334 331 332 334 333 347 360 4 5 7 11 10 360 346 353 351 358 355 352 349 357 356 356 354 348 355 353 345 346 342 349 353 352 348 350 351 344 336 336 332
317 318 322 325 329 332 324 327 330 330 327 332 346 357 359 357 7 10 1 346 347 351 358 351 348 347 348 351 350 351 349 348 352 353 347 344 342 350 352 354 353 349 347 351 340 338 335
310 313 319 320 322 321 328 328 325 329 329 326 342 347 350 359 6 3 351 343 347 354 352 350 344 347 341 345 346 348 348 349 349 353 354 346 339 345 350 353 353 352 354 345 344 339 336
303 306 311 315 319 321 321 324 325 325 328 337 337 338 349 358 358 351 338 342 346 351 353 350 346 340 340 343 346 345 346 347 349 349 351 349 345 343 347 345 344 347 346 347 346 341 337
296 299 302 305 310 313 316 320 323 324 322 339 334 327 340 352 336 339 336 342 349 345 348 343 345 340 340 345 342 342 342 345 352 350 344 351 344 339 340 349 352 349 345 344 340 340 337
290 293 295 300 302 306 309 314 318 323 330 328 322 323 337 336 324 328 335 335 339 338 340 342 341 341 341 341 340 345 345 353 351 348 345 350 343 339 341 346 350 345 344 339 338 335 331
302 300 292 296 303 301 304 306 311 318 323 324 319 315 324 329 327 326 326 326 328 336 336 340 339 341 339 336 341 341 342 346 350 347 350 350 340 335 333 337 341 337 337 336 333 332 331
304 305 301 300 300 304 301 305 307 312 316 314 310 308 314 312 314 317 321 323 322 324 331 338 335 330 335 334 337 336 341 342 343 345 346 345 336 335 332 332 332 332 332 332 328 326 328
300 298 299 297 296 294 301 301 308 306 309 304 301 304 308 306 310 311 315 315 316 322 326 326 325 331 332 332 334 335 338 338 337 340 341 342 337 340 334 333 333 332 333 332 331 330 331
299 302 300 298 298 297 298 302 301 308 308 304 303 305 302 301 301 305 308 312 314 321 324 328 328 331 328 332 341 342 344 344 342 338 335 339 341 341 337 345 340 335 344 344 344 344 341
294 295 299 302 302 301 298 298 305 302 300 301 300 302 300 296 293 298 306 311 313 315 319 325 330 328 337 353 349 344 340 337 336 336 341 340 341 341 336 342 339 347 353 352 347 346 345
293 293 293 297 300 303 300 299 302 302 298 299 301 294 292 291 292 298 304 310 317 321 320 324 329 335 347 342 336 337 337 339 340 338 334 339 340 339 339 339 335 339 348 349 348 345 348
290 291 292 293 294 300 300 293 296 294 299 296 297 299 293 292 292 302 303 308 310 311 317 323 334 339 340 334 334 330 330 337 340 343 349 343 340 338 341 338 339 347 353 358 353 341 354
287 289 291 293 293 293 296 291 286 290 293 297 303 292 289 287 296 302 303 304 315 312 317 324 325 328 336 330 328 329 331 341 336 337 339 341 338 329 332 335 339 346 354 358 345 344 351
286 286 288 290 294 293 290 283 286 283 286 291 300 298 291 285 293 304 311 310 310 307 313 328 333 327 329 327 331 333 334 337 338 339 340 339 340 339 340 338 339 357 354 345 347 349 349
288 286 285 287 289 292 290 272 276 277 282 288 288 304 301 290 294 312 313 312 311 310 313 316 327 337 339 337 335 339 334 337 337 334 343 337 339 341 340 340 347 346 343 348 351 349 350